Wind_Speed
5 4 2 1 4 5 0 3 1 4 1 2 6 4 5 4 3 3 18 14 15 15 16 14 14 14 13 12 11 10 8 9 11 13 15 16 16 17 17 15 14 14 13 12 11 11 11 12 11
4 3 1 3 5 3 4 3 4 4 9 17 12 7 4 2 4 10 13 13 14 16 16 16 15 14 12 11 10 8 7 8 10 11 12 14 16 16 17 16 16 14 13 12 11 10 10 10 11
4 2 0 4 4 4 4 4 4 9 13 3 5 4 3 5 9 12 11 13 17 17 15 15 14 13 12 9 8 8 7 6 7 8 10 12 13 15 16 15 15 14 14 12 11 9 9 9 9
4 2 5 4 2 3 2 5 6 11 2 3 9 5 4 6 8 9 13 16 18 17 15 15 14 13 11 9 8 7 6 5 6 7 8 9 11 13 14 14 15 14 14 13 12 10 10 9 9
4 3 4 4 2 2 3 6 16 6 3 5 5 5 5 9 8 10 16 16 14 15 15 14 14 13 12 10 9 7 6 5 5 6 6 7 9 11 12 13 13 13 13 12 12 12 11 11 11
3 3 4 2 3 3 1 9 9 5 5 7 4 9 6 10 12 13 17 19 14 12 15 14 14 13 12 11 9 8 7 6 5 5 5 5 6 8 10 11 11 12 11 11 12 12 12 12 11
6 4 4 4 3 1 4 12 6 9 7 6 8 6 4 15 15 16 18 17 15 15 15 13 11 11 11 10 10 8 7 6 5 5 5 4 4 5 8 9 11 12 11 11 11 11 11 10 10
4 6 4 3 5 4 5 11 6 10 5 9 11 5 4 19 18 19 20 18 17 18 17 16 14 13 12 12 11 10 8 8 6 5 5 4 4 4 7 10 13 13 14 12 11 10 10 10 10
4 5 3 6 7 4 9 4 6 6 8 12 11 6 5 20 21 21 21 20 20 21 20 20 19 18 16 14 13 12 10 8 8 7 6 6 5 4 2 5 9 13 13 13 11 9 8 8 9
4 4 9 6 5 3 7 5 12 6 7 10 10 14 10 20 23 23 23 22 23 23 22 22 21 18 18 17 15 13 12 12 11 10 9 8 6 6 5 1 4 7 9 10 10 10 9 8 8
3 4 5 3 3 4 7 4 10 8 4 14 20 18 16 21 25 24 23 22 21 23 25 22 25 19 20 19 17 15 15 13 11 13 11 11 10 8 8 6 4 4 5 5 6 6 6 6 7
2 2 4 3 1 2 4 4 6 14 9 8 17 16 20 24 27 27 26 24 24 23 24 22 22 23 21 23 21 18 19 17 16 13 14 15 12 10 10 9 6 5 4 4 4 2 3 3 5
2 2 2 2 2 2 3 4 7 13 20 12 11 17 21 25 26 26 24 24 25 25 24 24 23 23 23 24 24 22 21 20 19 18 18 16 16 12 13 15 9 4 8 6 4 3 1 2 2
1 2 1 2 3 4 3 2 3 6 17 18 15 18 23 26 26 27 28 27 27 24 24 24 25 24 25 25 26 26 24 25 24 23 21 17 16 15 14 20 12 8 10 8 7 4 4 2 4
2 2 4 4 4 3 3 6 10 22 12 17 19 21 25 28 28 30 27 26 25 25 25 25 25 26 26 27 27 28 26 26 26 23 21 22 20 19 14 19 11 12 11 9 9 6 5 4 4
4 5 3 2 4 2 6 8 9 11 22 22 21 22 26 29 30 29 28 27 26 27 27 26 25 25 25 25 25 27 26 27 24 23 24 21 20 20 20 20 15 17 13 12 10 9 9 8 7
6 3 3 8 8 2 4 6 4 4 12 23 24 26 28 30 32 31 30 29 28 28 28 27 26 25 24 25 25 25 25 26 25 24 23 23 21 20 21 21 17 19 15 14 11 11 9 11 12
6 3 4 4 2 2 4 13 11 15 11 20 23 27 32 34 37 33 32 31 30 31 31 30 29 27 25 24 23 25 24 24 27 26 25 24 22 25 28 19 20 18 17 15 14 12 13 12 13
5 4 4 4 3 3 8 11 11 21 17 26 31 30 32 36 34 35 34 33 33 34 35 34 32 30 27 25 27 29 29 29 27 26 24 25 26 26 21 22 20 18 16 16 15 16 15 17 15
3 3 5 5 3 4 9 14 13 13 18 31 35 37 38 37 37 37 36 38 39 37 37 36 35 32 28 27 30 30 32 30 29 28 27 24 24 23 23 21 19 19 19 18 18 17 16 16 14
5 6 5 7 3 4 4 8 8 9 22 32 37 39 38 42 43 42 40 41 41 41 39 37 36 33 30 29 31 32 31 32 32 32 29 25 22 23 22 21 20 21 19 20 19 15 11 12 12
6 8 5 3 1 5 2 6 6 7 10 9 30 36 44 46 46 45 44 44 45 43 41 39 37 34 32 30 33 35 36 37 35 31 29 27 25 24 23 23 22 22 22 20 18 15 12 10 10
7 6 6 3 3 4 4 1 4 2 8 14 19 38 41 41 41 41 40 40 41 44 43 41 38 36 34 31 32 36 38 35 33 32 31 30 27 26 25 25 26 26 24 20 17 16 15 13 10
8 6 5 4 2 5 11 9 10 7 12 7 18 31 31 27 26 27 28 28 32 37 43 43 40 38 35 33 34 38 37 36 37 35 34 31 29 29 28 28 28 26 24 21 19 18 15 12 10
3 6 2 3 1 10 3 3 16 4 7 11 14 30 25 18 14 14 17 20 25 31 38 44 41 41 38 35 35 37 37 36 34 35 34 33 31 33 33 32 30 27 24 21 19 16 13 11 8
9 8 6 8 4 6 5 8 7 12 19 27 33 35 31 24 18 17 15 17 21 25 32 43 44 43 40 36 37 37 36 37 37 35 34 33 32 34 35 33 30 28 25 22 19 16 13 11 9
7 8 4 1 2 2 5 7 8 8 13 11 26 24 22 17 14 13 15 17 20 24 29 40 45 43 40 38 38 38 38 40 38 37 36 35 33 37 38 35 33 29 25 22 18 15 12 11 8
6 6 3 2 3 5 6 6 7 7 10 12 13 21 23 16 13 12 12 14 16 20 25 34 42 42 40 38 38 38 38 39 39 38 37 36 39 41 40 38 34 30 26 23 19 15 13 10 8
4 5 2 4 5 5 3 9 8 11 11 8 8 10 6 7 10 10 9 11 14 18 24 32 40 42 40 37 38 38 39 39 38 38 38 38 41 42 41 38 34 30 26 23 19 15 12 10 9
2 6 8 5 5 3 3 15 3 7 6 9 10 5 3 4 6 6 6 11 15 17 22 30 38 40 39 37 40 37 38 39 38 38 40 41 43 43 40 37 33 30 26 22 18 15 12 10 9
Wind_Direction
241 245 231 285 58 66 230 259 270 139 220 185 134 151 157 75 134 192 145 141 152 160 156 155 154 148 143 135 128 120 107 85 66 66 73 75 73 69 68 71 73 75 78 80 80 81 77 76 71
217 202 182 92 88 75 266 261 190 189 131 113 100 98 65 81 109 140 153 158 160 164 162 159 159 155 147 141 139 130 114 92 75 69 72 70 68 69 67 67 68 68 70 71 74 74 76 74 68
179 187 113 90 111 164 196 214 178 137 134 121 113 90 111 127 131 147 161 166 161 165 166 163 163 163 158 157 142 135 133 109 91 80 79 74 71 67 66 65 66 67 70 73 76 77 76 73 70
165 128 64 81 174 213 209 183 155 144 229 148 136 88 137 162 161 157 155 158 160 169 170 169 173 174 173 167 159 155 150 132 106 90 88 90 79 67 59 58 61 65 69 71 75 77 78 75 69
154 84 57 77 294 272 250 172 160 160 138 146 161 175 164 169 172 162 160 158 162 174 177 175 181 183 181 181 176 173 173 164 130 119 109 95 76 64 57 57 63 64 66 70 74 78 78 80 76
101 82 65 176 252 292 182 174 161 172 158 161 154 150 161 178 166 162 163 166 169 180 181 187 189 191 189 186 182 177 181 175 163 142 121 99 77 65 57 65 66 69 74 76 77 79 83 82 84
123 85 175 166 191 276 177 170 182 178 169 198 164 137 196 176 169 167 169 171 178 180 185 192 199 200 198 201 196 192 193 186 182 164 146 125 91 71 60 63 65 67 73 78 83 88 90 92 89
116 92 112 210 194 230 182 168 202 178 181 163 171 198 209 187 177 175 179 184 187 186 188 191 203 210 204 203 205 205 203 201 197 192 179 163 136 92 58 69 76 77 77 76 78 83 88 89 88
115 66 168 199 155 232 170 155 175 188 160 178 198 218 218 191 187 185 188 193 194 194 195 196 201 216 211 209 209 209 211 213 211 209 205 196 181 120 75 38 67 79 87 82 77 76 80 80 80
90 116 210 186 196 214 191 180 169 173 179 211 223 221 220 195 198 197 199 200 200 201 200 206 208 213 212 205 211 219 217 203 204 216 217 206 187 179 196 180 88 89 90 89 82 76 76 78 80
130 170 186 209 224 229 188 197 176 166 234 218 219 215 210 198 202 206 208 212 214 212 217 214 217 217 214 212 210 215 222 218 228 220 218 205 202 207 212 186 170 167 143 116 99 88 81 71 75
97 124 165 173 220 166 174 169 203 208 222 243 236 231 216 205 208 212 214 215 216 221 226 235 220 226 223 218 216 217 217 219 224 227 228 211 221 218 219 211 207 215 198 163 152 118 87 77 72
86 194 209 215 206 236 215 219 226 242 237 248 231 225 220 215 215 217 220 223 226 227 230 233 231 229 229 224 221 217 220 220 221 223 233 230 212 220 219 222 201 232 230 196 203 193 152 104 71
119 160 284 273 245 247 230 248 234 251 236 240 236 230 224 222 221 220 223 225 229 231 231 231 233 234 234 232 230 227 220 222 219 225 224 235 221 223 246 202 202 222 228 210 198 187 162 176 114
58 344 329 230 219 244 207 299 240 240 248 238 236 231 225 226 224 229 232 233 235 234 232 233 235 235 236 236 234 230 220 223 227 228 224 223 223 225 234 207 222 228 234 215 205 193 182 170 163
48 49 16 302 160 275 148 261 270 256 242 240 235 232 229 229 232 234 232 235 237 234 233 234 235 237 238 238 235 228 221 224 225 224 223 218 222 232 227 228 226 247 234 219 204 187 176 171 153
10 237 211 318 201 133 176 261 262 266 234 243 240 237 237 237 237 236 235 237 238 238 236 236 239 238 239 238 234 223 223 220 218 227 223 222 218 223 221 223 239 233 225 214 206 184 181 167 157
199 210 247 243 219 184 237 260 271 265 254 251 255 250 246 245 246 244 240 239 238 237 238 239 241 241 239 235 225 218 212 217 216 218 223 223 222 233 215 227 237 228 218 206 180 184 173 172 161
135 178 215 249 249 193 241 261 264 272 254 254 252 251 251 250 255 247 243 241 239 238 237 239 240 241 240 231 216 210 209 211 218 220 222 229 229 209 233 234 229 218 193 185 187 185 178 165 162
145 184 250 278 250 188 272 260 260 245 251 250 252 251 250 251 251 249 242 240 239 240 240 239 240 239 239 231 219 218 207 211 217 217 214 213 222 228 229 224 211 195 188 189 186 187 177 176 169
212 192 216 222 312 240 306 281 243 259 241 252 254 257 256 253 253 252 246 241 240 239 239 238 237 236 235 230 215 211 210 213 213 212 215 218 220 218 212 204 199 192 189 186 178 182 193 186 179
241 204 171 201 91 252 152 288 262 238 250 234 252 253 256 255 254 254 253 246 243 244 240 237 234 234 232 227 213 212 211 210 213 216 215 216 217 213 206 199 197 192 182 184 181 181 186 197 204
225 131 162 151 182 319 188 204 241 315 266 260 251 256 258 260 262 263 261 258 251 242 239 234 229 229 231 227 216 212 212 216 217 217 216 213 215 213 207 199 192 187 184 185 186 186 188 196 200
144 88 59 53 103 279 175 170 273 192 220 254 259 264 268 272 271 270 265 259 252 243 236 232 228 228 228 223 213 210 215 216 215 214 211 211 214 207 197 190 187 186 186 188 188 189 193 195 191
147 108 300 321 18 242 84 159 242 269 261 222 246 265 274 274 273 274 264 255 248 240 232 227 224 226 225 219 213 214 216 218 222 221 219 215 212 202 194 189 188 189 190 193 193 195 195 192 192
200 167 175 210 208 269 141 228 245 243 264 248 257 263 267 271 278 272 266 260 252 243 233 225 223 224 224 221 215 214 218 219 221 219 222 220 221 208 197 192 192 194 196 195 196 196 194 193 194
197 206 221 333 89 355 242 281 295 263 269 274 252 256 264 271 272 270 264 262 255 245 235 225 223 224 224 220 214 214 214 218 220 219 217 218 221 206 199 196 196 197 197 197 199 198 196 194 191
166 167 75 345 201 256 266 269 228 263 252 247 267 256 257 264 268 268 272 273 262 248 237 226 225 228 227 221 216 214 219 220 221 220 219 221 212 203 200 198 198 198 198 199 200 199 196 196 198
136 204 154 141 158 189 296 266 213 222 232 223 261 284 261 244 252 249 252 261 257 246 236 225 223 226 227 221 217 216 221 221 222 219 218 218 210 204 203 202 201 200 201 200 201 197 198 201 210
285 218 165 152 220 241 176 268 171 231 273 229 248 275 224 232 241 246 267 271 256 247 234 226 224 227 229 222 216 220 223 223 222 221 217 216 209 205 205 204 203 203 204 205 204 204 205 211 218
Height
1532 1532 1533 1533 1545 1555 1563 1557 1552 1552 1552 1551 1551 1553 1554 1556 1557 1569 1561 1563 1566 1568 1570 1572 1574 1577 1578 1579 1580 1580 1581 1580 1580 1579 1579 1580 1580 1579 1578 1578 1578 1578 1577 1577 1577 1577 1577 1577 1578
1532 1533 1533 1533 1557 1570 1567 1553 1551 1549 1550 1551 1552 1553 1554 1557 1557 1559 1561 1563 1565 1568 1570 1573 1575 1577 1578 1580 1581 1581 1581 1582 1582 1582 1582 1582 1581 1582 1580 1581 1580 1580 1579 1579 1579 1578 1579 1579 1579
1532 1533 1534 1542 1564 1567 1564 1549 1548 1549 1549 1550 1552 1554 1555 1556 1557 1559 1561 1563 1565 1568 1571 1573 1575 1577 1579 1580 1580 1581 1582 1584 1584 1585 1584 1584 1584 1584 1583 1583 1582 1582 1581 1581 1581 1580 1581 1581 1582
1532 1534 1538 1550 1550 1549 1547 1545 1546 1549 1550 1550 1551 1554 1555 1555 1557 1559 1560 1563 1565 1568 1571 1573 1575 1577 1579 1580 1581 1582 1583 1584 1585 1585 1585 1586 1586 1586 1585 1585 1584 1584 1583 1583 1583 1582 1582 1583 1584
1532 1533 1548 1555 1551 1546 1545 1544 1546 1548 1549 1551 1552 1554 1555 1555 1556 1558 1560 1563 1566 1568 1571 1573 1575 1577 1579 1580 1582 1583 1584 1585 1585 1587 1587 1587 1587 1587 1588 1587 1587 1586 1585 1585 1585 1584 1584 1586 1586
1532 1535 1556 1560 1552 1545 1544 1544 1546 1548 1549 1550 1551 1553 1554 1555 1556 1558 1561 1563 1566 1569 1571 1573 1575 1577 1578 1580 1582 1583 1585 1586 1586 1587 1588 1588 1588 1589 1589 1589 1588 1587 1587 1587 1587 1586 1587 1587 1588
1531 1541 1553 1553 1551 1545 1543 1544 1546 1547 1548 1549 1550 1553 1553 1554 1556 1558 1561 1563 1566 1568 1570 1572 1574 1576 1578 1579 1581 1583 1584 1585 1586 1587 1588 1588 1590 1590 1591 1590 1590 1590 1589 1589 1588 1588 1588 1588 1588
1531 1537 1552 1552 1554 1546 1540 1543 1543 1545 1547 1548 1549 1550 1551 1551 1554 1557 1560 1562 1564 1567 1569 1571 1573 1575 1577 1578 1580 1582 1584 1585 1586 1587 1588 1589 1590 1591 1592 1592 1591 1591 1591 1590 1590 1590 1590 1590 1590
1531 1546 1555 1548 1551 1541 1539 1541 1542 1544 1544 1546 1547 1547 1548 1550 1553 1555 1558 1560 1563 1565 1567 1569 1571 1574 1575 1577 1579 1581 1583 1584 1586 1587 1588 1589 1590 1592 1593 1593 1593 1592 1592 1592 1592 1592 1592 1592 1592
1532 1548 1544 1538 1538 1538 1538 1539 1541 1544 1544 1545 1544 1545 1546 1548 1551 1553 1555 1557 1560 1562 1565 1567 1570 1571 1573 1575 1577 1580 1582 1583 1585 1586 1588 1589 1590 1592 1593 1594 1594 1594 1594 1594 1594 1594 1594 1594 1594
1534 1540 1536 1535 1536 1537 1538 1540 1541 1541 1545 1540 1539 1542 1544 1546 1548 1550 1553 1555 1558 1560 1562 1564 1567 1568 1571 1573 1576 1578 1580 1582 1584 1586 1587 1588 1589 1591 1592 1593 1594 1595 1595 1595 1595 1595 1596 1596 1595
1535 1535 1535 1535 1535 1536 1537 1538 1538 1538 1537 1538 1539 1541 1542 1542 1544 1546 1549 1552 1554 1557 1559 1561 1563 1566 1568 1570 1573 1576 1578 1580 1582 1584 1585 1587 1588 1590 1591 1592 1593 1594 1595 1595 1595 1596 1596 1596 1596
1534 1534 1535 1535 1535 1536 1536 1536 1537 1533 1535 1536 1537 1538 1539 1541 1542 1545 1548 1550 1552 1554 1556 1558 1560 1562 1565 1567 1569 1572 1575 1578 1580 1582 1583 1584 1586 1588 1589 1591 1592 1593 1595 1595 1596 1596 1596 1597 1596
1534 1534 1535 1534 1535 1535 1536 1536 1536 1530 1532 1533 1534 1535 1536 1538 1540 1542 1543 1545 1547 1551 1553 1555 1557 1559 1560 1563 1565 1568 1571 1574 1576 1579 1581 1583 1585 1586 1587 1587 1589 1591 1593 1594 1595 1595 1596 1596 1596
1535 1536 1535 1534 1534 1535 1535 1538 1532 1529 1530 1531 1531 1532 1533 1535 1537 1537 1540 1543 1545 1547 1549 1551 1553 1555 1556 1558 1560 1563 1567 1570 1573 1576 1578 1580 1582 1585 1586 1586 1587 1589 1590 1592 1593 1594 1595 1596 1596
1539 1541 1545 1535 1534 1535 1536 1542 1525 1525 1527 1526 1528 1528 1529 1530 1531 1534 1537 1539 1541 1543 1545 1547 1549 1550 1552 1554 1556 1559 1562 1566 1569 1572 1575 1577 1580 1582 1583 1585 1586 1587 1588 1589 1591 1592 1593 1594 1596
1548 1549 1548 1541 1534 1535 1537 1534 1524 1523 1524 1523 1524 1524 1525 1526 1527 1528 1531 1534 1536 1538 1540 1542 1544 1546 1548 1549 1552 1555 1558 1563 1565 1569 1571 1573 1576 1578 1580 1581 1583 1584 1586 1588 1589 1590 1592 1592 1593
1548 1549 1548 1545 1535 1536 1536 1532 1524 1523 1522 1520 1520 1520 1520 1520 1518 1523 1526 1528 1530 1532 1534 1536 1538 1540 1542 1544 1547 1551 1554 1558 1560 1564 1567 1570 1572 1574 1574 1577 1579 1581 1583 1585 1587 1589 1590 1592 1592
1540 1543 1543 1540 1533 1535 1534 1530 1522 1518 1519 1516 1513 1513 1512 1511 1511 1516 1519 1522 1523 1524 1526 1529 1531 1534 1536 1538 1541 1545 1549 1554 1557 1561 1563 1566 1568 1569 1571 1574 1576 1578 1580 1583 1585 1587 1588 1589 1591
1536 1540 1544 1538 1533 1535 1531 1526 1516 1514 1509 1504 1503 1503 1502 1503 1503 1506 1510 1513 1513 1516 1519 1522 1525 1528 1530 1532 1536 1540 1544 1549 1553 1556 1559 1562 1564 1567 1569 1571 1572 1575 1577 1580 1582 1584 1585 1588 1588
1536 1541 1540 1537 1532 1533 1531 1523 1514 1499 1498 1496 1494 1492 1493 1492 1492 1495 1499 1502 1505 1507 1511 1514 1518 1521 1524 1527 1530 1536 1540 1544 1547 1550 1553 1557 1561 1563 1565 1567 1570 1572 1575 1578 1580 1582 1584 1584 1586
1537 1529 1531 1533 1538 1546 1529 1535 1508 1498 1492 1489 1483 1482 1479 1480 1482 1485 1488 1492 1495 1498 1503 1507 1511 1514 1517 1520 1524 1529 1533 1536 1541 1546 1550 1553 1557 1560 1562 1565 1567 1570 1573 1575 1577 1579 1582 1583 1583
1526 1526 1531 1532 1539 1538 1535 1538 1496 1497 1494 1482 1474 1470 1471 1472 1475 1476 1478 1482 1487 1491 1495 1499 1503 1507 1510 1514 1518 1524 1528 1532 1537 1541 1544 1548 1552 1556 1559 1562 1564 1567 1570 1573 1575 1577 1578 1580 1581
1522 1527 1535 1542 1543 1543 1522 1526 1490 1494 1479 1474 1465 1462 1463 1466 1469 1469 1471 1475 1477 1482 1487 1492 1496 1500 1504 1508 1513 1518 1523 1527 1531 1534 1538 1542 1548 1552 1555 1558 1561 1564 1567 1570 1572 1574 1576 1577 1578
1519 1526 1544 1549 1559 1527 1520 1525 1478 1470 1469 1465 1460 1456 1458 1461 1463 1465 1465 1467 1469 1472 1477 1483 1488 1492 1497 1502 1509 1513 1519 1523 1527 1530 1534 1538 1542 1547 1551 1554 1558 1561 1564 1567 1569 1571 1572 1574 1575
1520 1517 1537 1547 1548 1525 1522 1511 1481 1460 1456 1455 1453 1453 1453 1456 1459 1460 1461 1463 1464 1467 1470 1474 1480 1484 1491 1496 1502 1509 1514 1518 1522 1526 1530 1535 1539 1544 1548 1552 1555 1558 1560 1563 1566 1567 1569 1570 1571
1515 1518 1508 1517 1566 1546 1493 1479 1464 1457 1453 1451 1446 1447 1449 1453 1455 1456 1457 1458 1459 1461 1464 1469 1473 1479 1485 1490 1496 1502 1508 1511 1516 1521 1526 1529 1534 1539 1543 1547 1551 1554 1557 1560 1563 1564 1566 1566 1568
1497 1500 1520 1530 1535 1548 1492 1487 1473 1454 1448 1445 1444 1442 1444 1449 1452 1453 1453 1454 1455 1457 1460 1464 1470 1475 1481 1485 1491 1497 1502 1507 1511 1516 1520 1526 1529 1533 1538 1542 1547 1550 1553 1556 1558 1560 1562 1563 1564
1499 1501 1503 1508 1517 1524 1527 1461 1450 1443 1437 1439 1439 1440 1441 1444 1448 1449 1449 1450 1451 1452 1455 1458 1464 1469 1475 1480 1486 1491 1496 1500 1505 1510 1515 1520 1524 1529 1534 1538 1542 1546 1549 1552 1554 1557 1559 1561 1562
1481 1481 1488 1501 1513 1521 1515 1454 1437 1439 1437 1437 1437 1440 1440 1442 1444 1445 1445 1446 1447 1449 1451 1455 1460 1464 1469 1475 1481 1486 1491 1495 1499 1503 1508 1513 1519 1525 1530 1534 1538 1542 1545 1549 1551 1553 1556 1558 1559